Weather History for KCID - August, 2013

Change the Weather History Date:

Sunday, August 11, 2013

  Actual Average Record
Temperature  
Mean Temperature 72 °F 72 °F  
Max Temperature 82 °F 82 °F 100 °F (1941)
Min Temperature 61 °F 61 °F 47 °F (2004)
Degree Days  
Heating Degree Days 0 0  
Month to date heating degree days 0 0  
Since 1 June heating degree days 41 33  
Since 1 July heating degree days 13 4  
Cooling Degree Days 7 7  
Month to date cooling degree days 57 79  
Year to date cooling degree days 537 546  
Since 1 June cooling degree days 463 497  
Growing Degree Days 22 (Base 50)    
Moisture  
Dew Point 62 °F    
Average Humidity 72    
Maximum Humidity 90    
Minimum Humidity 54    
Precipitation  
Precipitation T in 0.14 in 1.69 in (2005)
Month to date precipitation 0.06 1.55  
Year to date precipitation 29.35 22.37  
Sea Level Pressure  
Sea Level Pressure 30.07 in    
Wind  
Wind Speed 6 mph (SSW)    
Max Wind Speed 16 mph    
Max Gust Speed 22 mph    
Visibility 10 miles    
Events      
T = Trace of Precipitation, MM = Missing Value Source: NWS Daily Summary

Daily Weather History Graph

Daily Weather History Graph

Search for Another Location

Airport or City:

Trip Planner

Search our weather history database for the weather conditions in past years. The results will help you decide how hot, cold, wet, or windy it might be!

Date:

Astronomy

Aug. 11, 2013 Rise Set
Actual Time 6:11 AM CDT 8:12 PM CDT
Civil Twilight 5:40 AM CDT 8:42 PM CDT
Nautical Twilight 5:03 AM CDT 9:19 PM CDT
Astronomical Twilight 4:22 AM CDT 9:59 PM CDT
Moon 11:05 AM CDT (8/11) 10:21 PM CDT (8/11)
Length of Visible Light 15h 01m
Length of Day
14h 01m
Waxing Crescent, 22% of the Moon is Illuminated
Aug 11
Waxing Crescent
Aug 14
First Quarter
Aug 20
Full
Aug 28
Last Quarter
Sep 5
New

Hourly Weather History & Observations

Time (CDT) Temp. Heat Index Dew Point Humidity Pressure Visibility Wind Dir Wind Speed Gust Speed Precip Events Conditions
12:52 AM 62.1 °F - 59.0 °F 90% 30.12 in 10.0 mi SSE 4.6 mph - N/A   Clear
1:52 AM 63.0 °F - 59.0 °F 87% 30.12 in 10.0 mi Calm Calm - N/A   Mostly Cloudy
2:52 AM 64.0 °F - 59.0 °F 84% 30.13 in 10.0 mi South 4.6 mph - N/A   Partly Cloudy
3:52 AM 63.0 °F - 59.0 °F 87% 30.11 in 10.0 mi South 4.6 mph - N/A   Overcast
4:52 AM 63.0 °F - 59.0 °F 87% 30.10 in 10.0 mi South 5.8 mph - N/A   Mostly Cloudy
5:52 AM 62.1 °F - 57.9 °F 86% 30.10 in 10.0 mi South 5.8 mph - N/A   Scattered Clouds
6:52 AM 63.0 °F - 57.0 °F 81% 30.11 in 10.0 mi Calm Calm - N/A   Mostly Cloudy
7:52 AM 66.0 °F - 57.9 °F 75% 30.11 in 10.0 mi SSW 5.8 mph - N/A   Mostly Cloudy
8:52 AM 70.0 °F - 59.0 °F 68% 30.10 in 10.0 mi SW 11.5 mph - N/A   Partly Cloudy
9:52 AM 73.9 °F - 60.1 °F 62% 30.09 in 10.0 mi SW 13.8 mph - N/A   Clear
10:52 AM 75.9 °F - 62.1 °F 62% 30.10 in 10.0 mi SW 10.4 mph - N/A   Partly Cloudy
11:52 AM 79.0 °F - 63.0 °F 58% 30.10 in 10.0 mi WSW 10.4 mph - N/A   Partly Cloudy
12:52 PM 80.1 °F 81.5 °F 63.0 °F 56% 30.08 in 10.0 mi West 6.9 mph - N/A   Partly Cloudy
1:52 PM 81.0 °F 82.2 °F 63.0 °F 54% 30.06 in 10.0 mi WSW 12.7 mph - N/A   Partly Cloudy
2:52 PM 81.0 °F 82.2 °F 63.0 °F 54% 30.05 in 10.0 mi SW 11.5 mph - N/A   Partly Cloudy
3:52 PM 81.0 °F 82.2 °F 63.0 °F 54% 30.05 in 10.0 mi SSW 11.5 mph - N/A   Partly Cloudy
4:52 PM 81.0 °F 82.5 °F 64.0 °F 56% 30.04 in 10.0 mi SW 6.9 mph - N/A   Clear
5:52 PM 80.1 °F 81.9 °F 64.9 °F 60% 30.03 in 10.0 mi Calm Calm - N/A   Partly Cloudy
6:52 PM 79.0 °F - 64.9 °F 62% 30.01 in 10.0 mi SSW 5.8 mph - N/A   Scattered Clouds
7:52 PM 73.9 °F - 66.0 °F 76% 30.00 in 10.0 mi Calm Calm - N/A   Clear
8:52 PM 71.1 °F - 64.9 °F 81% 30.01 in 10.0 mi SSE 3.5 mph - N/A   Clear
9:52 PM 70.0 °F - 64.0 °F 81% 30.01 in 10.0 mi Calm Calm - N/A   Clear
10:52 PM 69.1 °F - 63.0 °F 81% 29.99 in 10.0 mi SSE 4.6 mph - N/A   Partly Cloudy
11:52 PM 69.1 °F - 63.0 °F 81% 30.01 in 10.0 mi SSW 5.8 mph - N/A   Clear